星链-37993(STARLINK-37993)

导读

STARLINK-37993(NORAD编号69976)是美国SpaceX公司星链星座的组网通信卫星,属于星链V2批次量产卫星,2026年6月28日由猎鹰9号火箭从范登堡太空军基地发射升空,属于2026年第22批星链组网载荷。该卫星运行于近地轨道,轨道高度约343-345公里,倾角约97.3度,轨道周期约91.4分钟,截至2026年7月处于在轨运营状态,主要承担全球低延迟宽带通信任务,用于扩充星链星座覆盖容量,支撑偏远地区、应急场景的网络接入需求。

Basic Information
目录编号:
69976
目录名称:
STARLINK-37993
国际标识:
2026-159B
轨道中心:
EARTH
卫星名称:
星链-37993
卫星全名:
星链-37993(STARLINK-37993)
卫星状态:
在轨 (已飞行56 天)
发射日期:
2026-07-11 UTC
国别 :
美国 (US)
星等 :
--
Orbit Information
数据来源 国际轨道数据
星历时间: 2026-09-05T11:51:13+0800
4小时前
查看轨道信息
半长轴: 6722.246km
偏心率: 0.0001956
轨道倾角: 97.285°
近地点辐角 77.996°
升交点赤经 89.548°
平近点角 282.152°
近地点: 342.794km
远地点: 345.424km
周期: 91.418分钟
每日圈数: 15.751837
Detailed Information
固有亮度:
5
最大亮度:
2.5
卫星平台:
Starlink V1.0
覆盖范围:
全球
运营商:
太空探索技术公司
运营商所在国:
美国
制造商(研发单位):
太空探索技术公司
制造商所在国:
美国
使用方式:
暂无
Satellite Introduction
Starlink 计划是 SpaceX 推出的全球卫星互联网项目,通过发射低轨道卫星,为全球尤其是偏远地区提供高速、低延迟的互联网服务。自 2019 年起,Starlink 已部署数千颗卫星,旨在缩小全球数字鸿沟,推动互联网普及。该项目还为军事、航空等行业提供通信支持,带来广泛经济效益。
2D Orbit Map
3D Orbit Map
Orbit Altitude Analysis Chart
Orbit Inclination Analysis Chart
Orbit Comprehensive Analysis Chart
View Comprehensive Chart
Conjunction Data List
Event ID Objects TCA Miss Dist (km) Collision Risk Probability Collision Risk Index (CRI) Action
CDM_260907-003406-972606-997621
2026-09-07T
00:34:36+0000
2.818 km
极远距离
1.468715E-6 低风险 0.38